sat.trackr.live / text

‹ back to catalog

STARLINK-3160

NORAD 49454 · 2021-104AY

PAYLOAD ACTIVE UNKNOWN

§ Identity

Operator
Country
US
Launch date
2021-11-13
Launch site
AFETR
Launch vehicle
Mass (kg)
RCS (m²)

Purposes: comms

External: N2YO · Heavens-Above · Gunter

§ Orbital elements

Epoch: 2026-09-20T00:56:53.498112Z

Period
93.85 min
Inclination
53.1608°
Eccentricity
0.0001239
Mean motion
15.34391211 rev/d
Perigee alt
461.9 km
Apogee alt
463.6 km
Semi-major
6,840.9 km
B*
1.8256e-5
RAAN
53.5271°
Arg perigee
78.2076°
Mean anomaly
281.9066°
Rev number
26,829

§ Raw data

STARLINK-31601 49454U 21104AY  26263.03950808  .00000240  00000+0  18256-4 0  99972 49454  53.1608  53.5271 0001239  78.2076 281.9066 15.34391211268298

JSON: /api/v1/satellites/49454 · /tle

For live sub-satellite position, see the globe view (requires WebGL).

§ Visibility from observer

Set your observer location to see the next 7 days of passes ≥ 10°. The values pass through the URL so the page stays shareable.

No JS? Fill the form by hand. The geolocation button needs JavaScript.